MDT,Max TemperatureF,Mean TemperatureF,Min TemperatureF,Max Dew PointF,MeanDew PointF,Min DewpointF,Max Humidity, Mean Humidity, Min Humidity, Max Sea Level PressureIn, Mean Sea Level PressureIn, Min Sea Level PressureIn, Max VisibilityMiles, Mean VisibilityMiles, Min VisibilityMiles, Max Wind SpeedMPH, Mean Wind SpeedMPH, Max Gust SpeedMPH,PrecipitationIn, CloudCover, Events, WindDirDegrees
2013-4-1,51,34,18,30,26,18,100,65,33,30.29,30.19,30.12,20,14,7,17,8,24,0.00,0,Fog,135
2013-4-2,65,43,21,30,25,23,93,44,14,30.01,29.92,29.87,20,16,15,21,10,28,0.00,6,,286
2013-4-3,37,33,28,30,27,23,100,81,56,30.27,30.22,30.12,20,9,2,13,8,20,0.04,8,Snow,136
2013-4-4,39,32,26,32,29,25,100,89,67,30.24,30.04,29.77,20,7,2,18,13,22,0.01,8,Rain,153
2013-4-5,43,35,26,32,29,25,100,84,59,29.88,29.74,29.68,20,10,2,14,8,,0.00,7,,20
2013-4-6,28,26,25,28,26,25,100,99,93,29.90,29.87,29.84,2,1,0,13,10,,0.02,8,Fog-Rain-Snow,123
2013-4-7,25,23,19,25,21,18,100,91,76,30.15,29.97,29.86,7,3,1,12,8,,0.04,8,Rain-Snow,56
2013-4-8,23,18,12,14,11,9,92,77,59,30.51,30.41,30.27,15,9,2,10,8,,0.12,6,Snow,140
2013-4-9,40,22,5,25,16,3,92,68,32,30.53,30.39,30.20,20,16,15,20,11,26,0.00,1,,157
2013-4-10,56,40,23,34,30,22,87,68,30,29.96,29.77,29.63,20,16,15,20,7,25,0.00,7,Rain,217
2013-4-11,36,30,25,32,28,23,100,87,60,30.16,30.03,29.90,20,8,0,18,8,22,0.20,7,Snow,333
2013-4-12,43,28,14,27,21,12,93,66,37,30.22,29.95,29.52,20,16,15,17,9,25,0.02,5,,155
2013-4-13,32,28,24,28,25,23,100,86,65,29.96,29.65,29.45,15,7,0,23,12,32,0.01,8,Snow,357
2013-4-14,27,24,21,20,17,12,93,75,51,30.30,30.20,30.06,15,6,1,16,10,21,0.43,8,Snow,20
2013-4-15,26,20,13,19,16,10,100,76,52,30.48,30.39,30.27,12,6,2,12,4,,0.03,8,Snow,344
2013-4-16,33,25,17,19,16,14,86,64,43,30.55,30.54,30.49,20,19,15,15,10,22,0.01,7,,4
2013-4-17,41,24,8,23,16,7,92,60,30,30.48,30.37,30.23,15,15,15,16,6,22,0.00,3,,177
2013-4-18,49,36,22,31,27,18,75,60,38,30.24,30.18,30.13,15,15,15,21,10,28,0.00,6,,52
2013-4-19,52,40,28,34,30,27,93,66,34,29.95,29.84,29.73,20,11,4,12,8,17,0.00,7,,129
2013-4-20,37,30,24,34,25,19,100,82,64,30.27,30.04,29.81,15,7,0,25,13,30,0.08,7,Fog-Snow,352
2013-4-21,29,20,12,14,11,9,86,61,30,30.48,30.43,30.29,20,15,5,13,8,17,0.04,7,Snow,15
2013-4-22,46,27,8,18,9,6,92,42,10,30.56,30.43,30.18,20,18,15,13,7,,0.00,0,,291
2013-4-23,46,32,19,25,17,10,74,46,18,30.32,30.28,30.15,20,17,15,20,9,26,0.00,6,,330
2013-4-24,55,36,17,21,16,12,80,38,12,30.28,30.06,29.82,20,17,15,24,9,29,0.00,5,,282
2013-4-25,61,46,31,27,23,19,60,34,14,29.89,29.80,29.74,20,17,15,31,16,41,0.00,4,,281
2013-4-26,68,54,41,28,27,25,46,30,13,29.93,29.89,29.85,20,18,15,31,13,43,0.00,6,,277
2013-4-27,63,52,42,30,26,23,43,32,14,29.80,29.71,29.63,15,15,15,36,17,51,0.00,4,,266
2013-4-28,59,46,32,30,23,13,93,44,8,30.01,29.80,29.57,20,18,15,23,12,32,0.00,6,,211
2013-4-29,40,32,23,28,25,18,100,74,35,29.92,29.69,29.44,20,7,0,28,14,32,0.00,7,Rain-Snow,332
2013-4-30,36,27,18,21,15,9,86,61,33,30.38,30.24,30.08,20,19,15,14,10,23,0.12,8,Snow,316